SL-3 DEB

Satellite information

Favourite Embed

Satellite Type and Status

DEBRISIN ORBIT

Key statistics

Satellite SL-3 DEB at a glance.

Uptime

19479

Days in orbit

Revolutions

≈ 14.0

Per day

Orbit

LEO

Low Earth Orbit

Inclination

81.2

Latest

Satellite identification and parameters

Extended collection of information and parameters for SL-3 DEB.

Object identification

Identified? True

Debris? True

Object name: SL-3 DEB

International designator: 1972-049C

Object number (NORAD): 20348

Object ID (CCSDS): 20348

Country: COMMONWEALTH OF INDEPENDENT STATES (CIS)

Current information (Y/N): Y

RCS size: SMALL

Orbital parameters

Period: 102.696 minutes

Inclination: 81.2357 deg

SMA: 7264.32 km

Apoapsis: 920.902 km

Periapsis: 851.468 km

RAAN: 284.2974 deg

Eccentricy: 0.00477906

Argument of periapsis: 321.667 deg

Mean anomaly: 38.1103 deg

Mean motion: 14.02201144 rev/day

Mean motion (dot): 0.00000201 rev/day2

B* drag term: 0.00012245301 1/REarth

Two-line elements (TLE)

Creation date: Oct. 28, 2025, 2:18 a.m.

Reference frame: TEME

Reference center: EARTH

Epoch: Oct. 27, 2025, 9:43 a.m. UTC

TLE line 0: 0 SL-3 DEB

TLE line 1: 1 20348U 72049C 25300.40497636 .00000201 00000-0 12245-3 0 9998

TLE line 2: 2 20348 81.2357 284.2974 0047791 321.6670 38.1103 14.02201144725395

Live tracking on map

Real-time ground track for satellite SL-3 DEB.

In-orbit conjunctions

A list of the most updated potential collisions computed for object SL-3 DEB.

Target Orbit TCA Probability of collision Miss distance Type
CZ-6A DEB LEO 2025-02-23 01:40:31 0.02395079 6.0 (m) DEBRIS

Associated space launch

The Meteor-1 series was the first series of Soviet meteorological satellites.

SL-3 DEB was lifted into orbit during the mission ‘Vostok 8A92M | Meteor-1 12 (26L)’, on board a Vostok 8A92M space rocket.

The launch took place on June 30, 1972, 6:52 p.m. from 41/1.

For more information about the launch, click the button.

Launch to space Vostok 8A92M | Meteor-1 12 (26L)
Vostok 8A92M | Meteor-1 12 (26L)

Agency: N/A

Status: Launch Successful

Launch date: June 30, 1972, 6:52 p.m. UTC

Rocket: Vostok 8A92M

Launch pad: 41/1

Location: Plesetsk Cosmodrome, Russian Federation

...

Latest news about this satellite

There are no fresh news available about this satellite. Check back as we update our databases every day.


Newsletter sign-up

Weekly statistics, charts and insights to help you stay on top of the space industry.